N6CTG Weather Reports


Display with metric or nautical units.
time (UTC)temp
F
wind
direction
speed
MPH
gust
MPH
rain 1hr
in
rain 24hr
in
rain mn
in
humidity
%
barometer
mb
20260507072703 52 0 0.0 0.0 0.00 0.00 0.00 89 1015.2
20260507071805 53 0 0.0 0.0 0.00 0.00 0.00 89 1015.3
20260507070904 53 0 0.0 0.0 0.00 0.00 0.00 89 1015.3
20260507070005 53 0 0.0 0.0 0.00 0.00 0.00 89 1015.3
20260507065403 53 0 0.0 0.0 0.00 0.00 0.00 89 1015.4
20260507064503 53 0 0.0 0.0 0.00 0.00 0.00 89 1015.5
20260507063603 54 0 0.0 0.0 0.00 0.00 0.00 88 1015.6
20260507062703 54 0 0.0 0.0 0.00 0.00 0.00 88 1015.6
20260507061803 54 0 0.0 0.0 0.00 0.00 0.00 88 1015.5
20260507060903 54 0 0.0 0.0 0.00 0.00 0.00 87 1015.5
20260507060003 54 0 0.0 0.0 0.00 0.00 0.00 87 1015.5
20260507055403 54 0 0.0 0.0 0.00 0.00 0.00 87 1015.4
20260507054503 55 0 0.0 0.0 0.00 0.00 0.00 87 1015.4
20260507053603 55 0 0.0 0.0 0.00 0.00 0.00 86 1015.4
20260507052703 55 0 0.0 0.0 0.00 0.00 0.00 86 1015.4
20260507051803 55 0 0.0 0.0 0.00 0.00 0.00 85 1015.3
20260507050903 56 0 0.0 0.0 0.00 0.00 0.00 84 1015.3
20260507050003 56 0 0.0 0.0 0.00 0.00 0.00 84 1015.3
20260507045403 56 0 0.0 0.0 0.00 0.00 0.00 84 1015.4
20260507044503 56 0 0.0 0.0 0.00 0.00 0.00 83 1015.3
20260507043603 57 0 0.0 0.0 0.00 0.00 0.00 83 1015.2
20260507042703 57 0 0.0 0.0 0.00 0.00 0.00 82 1015.2
20260507041824 58 0 0.0 0.0 0.00 0.00 0.00 81 1015.1
20260507040903 58 0 0.0 0.0 0.00 0.00 0.00 81 1015.1
20260507040003 58 0 0.0 0.0 0.00 0.00 0.00 81 1015.1
20260507035403 59 0 0.0 0.0 0.00 0.00 0.00 80 1015.1
20260507034503 59 0 0.0 0.0 0.00 0.00 0.00 80 1015.0
20260507033624 59 0 0.0 0.0 0.00 0.00 0.00 80 1014.9
20260507032703 60 0 0.0 0.0 0.00 0.00 0.00 79 1014.8
20260507031803 60 0 0.0 0.0 0.00 0.00 0.00 79 1014.8
20260507030903 60 0 0.0 0.0 0.00 0.00 0.00 78 1014.8
20260507030004 61 248 0.0 4.0 0.00 0.00 0.00 77 1014.6
20260507025403 61 251 0.0 4.0 0.00 0.00 0.00 77 1014.7
20260507024504 62 250 1.0 3.0 0.00 0.00 0.00 76 1014.6
20260507023603 62 245 2.0 4.0 0.00 0.00 0.00 74 1014.4
20260507022703 63 243 2.0 5.0 0.00 0.00 0.00 72 1014.4
20260507021824 64 244 2.0 5.0 0.00 0.00 0.00 70 1014.3
20260507020903 65 243 3.0 5.0 0.00 0.00 0.00 68 1014.3
20260507020003 66 241 3.0 6.0 0.00 0.00 0.00 66 1014.2
20260507015424 66 243 3.0 6.0 0.00 0.00 0.00 66 1014.1
20260507014503 67 251 2.0 6.0 0.00 0.00 0.00 64 1014.1
20260507013603 67 255 1.0 5.0 0.00 0.00 0.00 64 1014.1
20260507012724 67 246 3.0 7.0 0.00 0.00 0.00 63 1014.0
20260507011803 68 235 4.0 9.0 0.00 0.00 0.00 63 1014.0
20260507010903 68 248 3.0 6.0 0.00 0.00 0.00 63 1014.0
20260507010003 68 247 3.0 7.0 0.00 0.00 0.00 63 1014.0
20260507005403 69 255 3.0 8.0 0.00 0.00 0.00 61 1014.0
20260507004503 69 257 3.0 8.0 0.00 0.00 0.00 62 1013.9
20260507003603 69 243 4.0 9.0 0.00 0.00 0.00 61 1013.9
20260507002725 69 240 4.0 10.0 0.00 0.00 0.00 63 1013.8
20260507001802 69 244 5.0 9.0 0.00 0.00 0.00 62 1013.8
20260507000902 70 245 4.0 9.0 0.00 0.00 0.00 61 1013.7
20260507000023 70 250 4.0 9.0 0.00 0.00 0.00 61 1013.6
20260506235402 70 245 4.0 9.0 0.00 0.00 0.00 61 1013.6
20260506234502 70 244 5.0 11.0 0.00 0.00 0.00 62 1013.4
20260506233603 70 242 6.0 11.0 0.00 0.00 0.00 61 1013.4
20260506232702 71 249 4.0 10.0 0.00 0.00 0.00 60 1013.5
20260506231802 71 257 5.0 9.0 0.00 0.00 0.00 60 1013.5
20260506230923 71 246 6.0 11.0 0.00 0.00 0.00 60 1013.6
20260506230002 72 245 4.0 9.0 0.00 0.00 0.00 59 1013.6
20260506225402 72 248 5.0 9.0 0.00 0.00 0.00 59 1013.5
20260506224502 72 246 6.0 11.0 0.00 0.00 0.00 58 1013.6
20260506223602 72 251 5.0 11.0 0.00 0.00 0.00 56 1013.6
20260506222702 72 255 6.0 10.0 0.00 0.00 0.00 56 1013.6
20260506221802 72 245 6.0 11.0 0.00 0.00 0.00 55 1013.7
20260506220902 73 242 6.0 12.0 0.00 0.00 0.00 54 1013.8
20260506220002 73 252 5.0 11.0 0.00 0.00 0.00 56 1013.9
20260506215402 73 254 6.0 11.0 0.00 0.00 0.00 55 1013.9
20260506214502 73 249 5.0 11.0 0.00 0.00 0.00 54 1014.0
20260506213602 73 244 5.0 12.0 0.00 0.00 0.00 54 1014.1
20260506212702 73 248 5.0 11.0 0.00 0.00 0.00 54 1014.2
20260506211823 72 241 5.0 11.0 0.00 0.00 0.00 54 1014.2
20260506210923 72 247 6.0 11.0 0.00 0.00 0.00 53 1014.3
20260506210002 72 231 6.0 11.0 0.00 0.00 0.00 53 1014.4
20260506205402 73 235 6.0 11.0 0.00 0.00 0.00 52 1014.4
20260506204523 73 235 5.0 9.0 0.00 0.00 0.00 49 1014.5
20260506203602 73 250 4.0 10.0 0.00 0.00 0.00 48 1014.5
20260506202703 73 247 4.0 10.0 0.00 0.00 0.00 46 1014.7
20260506201802 73 260 3.0 7.0 0.00 0.00 0.00 46 1014.7
20260506200902 72 250 4.0 8.0 0.00 0.00 0.00 48 1014.8
20260506200002 71 248 3.0 8.0 0.00 0.00 0.00 50 1014.9
20260506195403 71 254 3.0 8.0 0.00 0.00 0.00 50 1015.0
20260506194502 71 258 2.0 7.0 0.00 0.00 0.00 53 1015.1
20260506193602 70 257 3.0 6.0 0.00 0.00 0.00 53 1015.2
20260506192723 70 234 4.0 9.0 0.00 0.00 0.00 54 1015.4
20260506191823 69 241 5.0 9.0 0.00 0.00 0.00 57 1015.4
20260506190902 69 232 5.0 10.0 0.00 0.00 0.00 57 1015.5
20260506190002 69 242 3.0 8.0 0.00 0.00 0.00 57 1015.5
20260506185403 69 250 2.0 8.0 0.00 0.00 0.00 59 1015.6
20260506184523 68 259 2.0 7.0 0.00 0.00 0.00 58 1015.7
20260506183602 67 242 3.0 7.0 0.00 0.00 0.00 59 1015.8
20260506182702 67 253 2.0 6.0 0.00 0.00 0.00 59 1015.9
20260506181802 66 246 2.0 9.0 0.00 0.00 0.00 61 1016.0
20260506180902 65 223 3.0 7.0 0.00 0.00 0.00 64 1016.1
20260506180003 65 231 3.0 9.0 0.00 0.00 0.00 62 1016.2
20260506175402 65 239 3.0 7.0 0.00 0.00 0.00 62 1016.2
20260506174502 65 246 2.0 6.0 0.00 0.00 0.00 62 1016.2
20260506173602 64 237 4.0 7.0 0.00 0.00 0.00 64 1016.4
20260506172723 64 243 1.0 7.0 0.00 0.00 0.00 63 1016.5
20260506171802 63 242 3.0 6.0 0.00 0.00 0.00 63 1016.6
20260506170902 62 239 1.0 4.0 0.00 0.00 0.00 66 1016.5
20260506170003 61 229 2.0 7.0 0.00 0.00 0.00 69 1016.6
20260506165402 61 240 2.0 7.0 0.00 0.00 0.00 68 1016.4
20260506164502 61 230 1.0 5.0 0.00 0.00 0.00 70 1016.5
20260506163602 60 180 1.0 4.0 0.00 0.00 0.00 70 1016.6
20260506162702 59 239 0.0 2.0 0.00 0.00 0.00 71 1016.6
20260506161802 59 276 1.0 4.0 0.00 0.00 0.00 72 1016.6
20260506160903 59 289 0.0 3.0 0.00 0.00 0.00 73 1016.6
20260506160002 57 249 0.0 3.0 0.00 0.00 0.00 74 1016.5
20260506155402 57 230 1.0 3.0 0.00 0.00 0.00 75 1016.6
20260506154523 57 229 0.0 3.0 0.00 0.00 0.00 76 1016.5
20260506153602 57 0 0.0 0.0 0.00 0.00 0.00 78 1016.6
20260506152723 57 0 0.0 0.0 0.00 0.00 0.00 80 1016.6
20260506151802 57 0 0.0 0.0 0.00 0.00 0.00 83 1016.7
20260506150902 56 0 0.0 0.0 0.00 0.00 0.00 87 1016.7
20260506150002 55 0 0.0 0.0 0.00 0.00 0.00 89 1016.8
20260506145402 54 0 0.0 0.0 0.00 0.00 0.00 90 1016.7
20260506144502 53 0 0.0 0.0 0.00 0.00 0.00 89 1016.8
20260506143603 52 0 0.0 0.0 0.00 0.00 0.00 91 1016.7
20260506142702 51 0 0.0 0.0 0.00 0.00 0.00 91 1016.7
20260506141802 50 0 0.0 0.0 0.00 0.00 0.00 91 1016.6
20260506140902 49 0 0.0 0.0 0.00 0.00 0.00 91 1016.6
20260506140023 49 0 0.0 0.0 0.00 0.00 0.00 92 1016.6
20260506135423 48 0 0.0 0.0 0.00 0.00 0.00 92 1016.5
20260506134502 42 0 0.0 0.0 0.00 0.00 0.00 94 1016.5
20260506133602 42 0 0.0 0.0 0.00 0.00 0.00 94 1016.4
20260506132702 42 0 0.0 0.0 0.00 0.00 0.00 94 1016.3
20260506131823 42 0 0.0 0.0 0.00 0.00 0.00 94 1016.2
20260506130902 42 0 0.0 0.0 0.00 0.00 0.00 94 1016.1
20260506130002 42 0 0.0 0.0 0.00 0.00 0.00 94 1016.0
20260506125402 42 0 0.0 0.0 0.00 0.00 0.00 94 1016.0
20260506124502 42 0 0.0 0.0 0.00 0.00 0.00 94 1015.8
20260506123602 42 0 0.0 0.0 0.00 0.00 0.00 94 1015.8
20260506122702 42 0 0.0 0.0 0.00 0.00 0.00 94 1015.8
20260506121802 42 0 0.0 0.0 0.00 0.00 0.00 94 1015.7
20260506120902 42 0 0.0 0.0 0.00 0.00 0.00 94 1015.7
20260506120002 44 0 0.0 0.0 0.00 0.00 0.00 92 1015.7
20260506115402 44 0 0.0 0.0 0.00 0.00 0.00 92 1015.6
20260506114502 44 0 0.0 0.0 0.00 0.00 0.00 92 1015.7
20260506113602 45 0 0.0 0.0 0.00 0.00 0.00 92 1015.7
20260506112702 45 0 0.0 0.0 0.00 0.00 0.00 92 1015.6
20260506111802 45 0 0.0 0.0 0.00 0.00 0.00 92 1015.6
20260506110902 45 0 0.0 0.0 0.00 0.00 0.00 92 1015.5
20260506110002 45 0 0.0 0.0 0.00 0.00 0.00 92 1015.4
20260506105402 45 0 0.0 0.0 0.00 0.00 0.00 92 1015.4
20260506104502 45 0 0.0 0.0 0.00 0.00 0.00 92 1015.4
20260506103602 45 0 0.0 0.0 0.00 0.00 0.00 91 1015.4
20260506102702 46 0 0.0 0.0 0.00 0.00 0.00 91 1015.3
20260506101802 46 0 0.0 0.0 0.00 0.00 0.00 91 1015.3
20260506100902 46 0 0.0 0.0 0.00 0.00 0.00 91 1015.4
20260506100002 46 0 0.0 0.0 0.00 0.00 0.00 91 1015.3
20260506095423 46 0 0.0 0.0 0.00 0.00 0.00 91 1015.3
20260506094502 46 0 0.0 0.0 0.00 0.00 0.00 91 1015.3
20260506093602 47 0 0.0 0.0 0.00 0.00 0.00 91 1015.3
20260506092702 47 0 0.0 0.0 0.00 0.00 0.00 90 1015.3
20260506091802 47 0 0.0 0.0 0.00 0.00 0.00 90 1015.2
20260506090902 47 0 0.0 0.0 0.00 0.00 0.00 90 1015.3
20260506090002 47 0 0.0 0.0 0.00 0.00 0.00 90 1015.4
20260506085402 48 0 0.0 0.0 0.00 0.00 0.00 90 1015.4
20260506084502 48 0 0.0 0.0 0.00 0.00 0.00 89 1015.6
20260506083602 48 0 0.0 0.0 0.00 0.00 0.00 89 1015.7
20260506082702 48 0 0.0 0.0 0.00 0.00 0.00 89 1015.7
20260506081802 49 0 0.0 0.0 0.00 0.00 0.00 88 1015.8
20260506080902 49 0 0.0 0.0 0.00 0.00 0.00 88 1015.9